Location: Chrząstowo
(52.0654°N, 17.1290°E)
Time: 10:11:52
(UTC+01:00)

Envisat - Pass Details

Date: 19 December 2019
Orbit: 764 x 766 km, 98.1° (Epoch: 17 January)

Event Time Altitude Azimuth Distance (km) Brightness Sun altitude
Rises 16:24:35 0° 130° (SE) 3,227 6.0 -6.4°
Reaches altitude 10° 16:27:08 10° 120° (ESE) 2,305 5.2 -6.7°
Maximum altitude 16:31:28 29° 61° (ENE) 1,377 3.8 -7.3°
Drops below altitude 10° 16:35:49 10° 2° (N) 2,317 5.2 -7.9°
Sets 16:38:22 0° 352° (N) 3,247 6.0 -8.2°
